Terminal Aerodrome Forecast
Issued by NWS Rapid City, SD

Home | Current Version | Previous Version | Graphics & Text | Print | Product List | Glossary On
Versions: 1 2 3 4 5 6 7 8 9 10 11 12 13 14 15 16 17 18 19
000
FTUS43 KUNR 262320
TAFRAP
TAF
KRAP 262320Z 2700/2724 19009KT P6SM FEW040
     FM271800 17010KT P6SM -SHRA BKN060 OVC100
      TEMPO 2720/2724 -TSRA BKN040CB=

USA.gov is the U.S. government's official web portal to all federal, state and local government web resources and services.